TimeEST,TemperatureF,Dew PointF,Humidity,Sea Level PressureIn,VisibilityMPH,Wind Direction,Wind SpeedMPH,Gust SpeedMPH,PrecipitationIn,Events,Conditions,WindDirDegrees,DateUTC
12:53 AM,60.1,53.1,78,30.05,10.0,Calm,Calm,-,N/A,,Overcast,0,2013-02-22 05:53:00
1:53 AM,57.9,53.1,84,30.05,10.0,Calm,Calm,-,N/A,,Scattered Clouds,0,2013-02-22 06:53:00
2:53 AM,57.9,53.1,84,30.05,10.0,Calm,Calm,-,N/A,,Mostly Cloudy,0,2013-02-22 07:53:00
3:53 AM,55.9,52.0,87,30.03,10.0,Calm,Calm,-,N/A,,Clear,0,2013-02-22 08:53:00
4:53 AM,55.9,53.1,90,30.03,10.0,Calm,Calm,-,N/A,,Clear,0,2013-02-22 09:53:00
5:53 AM,54.0,52.0,93,30.04,10.0,Calm,Calm,-,N/A,,Clear,0,2013-02-22 10:53:00
7:53 AM,59.0,55.9,90,30.07,10.0,Calm,Calm,-,N/A,,Clear,0,2013-02-22 12:53:00
8:53 AM,68.0,62.1,81,30.08,10.0,SSE,8.1,-,N/A,,Clear,150,2013-02-22 13:53:00
9:53 AM,73.9,62.1,66,30.08,10.0,South,10.4,-,N/A,,Clear,170,2013-02-22 14:53:00
10:53 AM,78.1,60.1,54,30.07,10.0,South,12.7,-,N/A,,Clear,170,2013-02-22 15:53:00
11:53 AM,81.0,59.0,47,30.06,10.0,South,10.4,-,N/A,,Partly Cloudy,190,2013-02-22 16:53:00
12:53 PM,82.0,57.9,44,30.05,10.0,South,9.2,-,N/A,,Scattered Clouds,170,2013-02-22 17:53:00
1:53 PM,84.0,57.9,41,30.02,10.0,South,11.5,-,N/A,,Mostly Cloudy,170,2013-02-22 18:53:00
2:53 PM,84.0,55.9,38,30.01,10.0,West,3.5,-,N/A,,Scattered Clouds,260,2013-02-22 19:53:00
3:53 PM,84.0,57.0,40,30.00,10.0,Calm,Calm,-,N/A,,Overcast,0,2013-02-22 20:53:00
4:53 PM,82.0,57.9,44,29.98,10.0,SE,4.6,-,N/A,,Mostly Cloudy,130,2013-02-22 21:53:00
5:53 PM,79.0,59.0,50,29.99,10.0,West,4.6,-,N/A,,Overcast,260,2013-02-22 22:53:00
6:53 PM,77.0,63.0,62,30.02,10.0,West,10.4,-,N/A,,Overcast,260,2013-02-22 23:53:00
7:53 PM,70.0,64.0,81,30.06,10.0,North,8.1,-,N/A,,Overcast,360,2013-02-23 00:53:00
8:53 PM,66.9,63.0,87,30.05,10.0,NNW,4.6,-,N/A,,Mostly Cloudy,340,2013-02-23 01:53:00
9:53 PM,66.0,62.1,87,30.06,10.0,Calm,Calm,-,N/A,,Partly Cloudy,0,2013-02-23 02:53:00
10:53 PM,63.0,61.0,93,30.04,10.0,Calm,Calm,-,N/A,,Mostly Cloudy,0,2013-02-23 03:53:00
11:01 PM,62.6,60.8,94,30.04,10.0,Calm,Calm,-,N/A,,Mostly Cloudy,0,2013-02-23 04:01:00
11:10 PM,62.6,60.8,94,30.03,10.0,Calm,Calm,-,N/A,,Scattered Clouds,0,2013-02-23 04:10:00
11:53 PM,62.1,60.1,93,30.01,10.0,Calm,Calm,-,N/A,,Mostly Cloudy,0,2013-02-23 04:53:00